Other Surface Observations
Issued by NWS

Home | Current Version | Previous Version | Text Only | Print | Product List | Glossary On
Versions: 1 2 3 4 5 6 7 8 9 10 11 12 13 14 15 16 17 18 19 20 21 22 23 24 25 26 27 28 29 30 31 32 33 34 35 36 37 38 39 40 41 42 43 44 45 46 47 48 49 50
195
SXUS52 KTAE 260705
OSOTAE
OSOTAE
North Florida/South Alabama/Southwest Georgia Weather Roundup
National Weather Service Tallahassee Florida
300 AM EDT TUE JUL 26 2016

Note: "fair" indicates few or no clouds below 12,000 feet with no
significant weather and/or obstructions to visibility.

!FLZ017-115-028-034-025-260800
...North Florida...

CITY           SKY/WX    TMP DP  RH WIND       PRES   REMARKS
TALLAHASSEE    PTCLDY    78  75  90 E5        30.03F
APALACHICOLA   PTCLDY    83  77  82 S13       30.00F HX  92
PERRY          PTCLDY    76  74  93 SE5       30.05F
CROSS CITY       N/A     76  72  87 CALM      30.05S
JACKSONVILLE   PTCLDY    76  73  91 CALM      30.05F
$$

!FLZ112-006-005-002-011-260800
...Florida Panhandle...

CITY           SKY/WX    TMP DP  RH WIND       PRES   REMARKS
MARIANNA       CLEAR     77  75  93 E3        30.02S
BONIFAY        NOT AVBL
PANAMA CITY NW FAIR      77  74  90 NE6       29.98F
TYNDALL AFB    MOCLDY    82  75  78 S10       29.99F
TYND DRONE APT NOT AVBL
DE FUNIAK SPR  FAIR      75  74  96 E5        30.01F
EGLIN AFB      MOCLDY    82  75  79 SE9       29.97F
DESTIN         PTCLDY    86  77  74 S8        29.97F HX  97
HURLBURT       NOT AVBL
CRESTVIEW      LGT RAIN  76  74  93 S3        30.01S
PENSACOLA      PTCLDY    79  76  90 SE3       29.96F
$$

!ALZ063-066-260800
...South Alabama...

CITY           SKY/WX    TMP DP  RH WIND       PRES   REMARKS
DOTHAN         CLEAR     75  73  93 SE5       30.06F
OZARK CAIRNS   CLEAR     75  74  96 SE3       30.01F
FT RUCKER HELI CLEAR     75  72  90 CALM      30.01F
RUCKER HELI 3  FAIR      75  72  89 SE3       30.03F
RUCKER HELI 2  FAIR      76  72  87 E5        30.01F
FLORALA APT    CLEAR     74  72  93 CALM      30.02F
ANDALUSIA      CLEAR     79  73  82 CALM      30.01F
TROY           CLEAR     73  72  96 CALM      30.03F
EUFALA         FAIR      74  71  91 CALM      30.03S
MOBILE         PTCLDY    78  75  90 NE7       29.95F
$$

!GAZ120>161-260800
...Southwest and South Central Georgia...

CITY           SKY/WX    TMP DP  RH WIND       PRES   REMARKS
THOMASVILLE      N/A     77  77 100 CALM      30.06S
BAINBRIDGE     PTCLDY    77  73  88 CALM      30.04F
MOODY AFB      PTCLDY    75  72  90 CALM      30.05F
VALDOSTA       PTCLDY    75  74  96 CALM      30.06S
MOULTRIE       CLEAR     75  72  88 CALM      30.06F
BLAKELY        PTCLDY    75  72  88 CALM      30.04F
ALBANY         CLEAR     76  72  87 CALM      30.06F
TIFTON         FAIR      74  74 100 CALM      30.06S
FITZGERALD     FAIR      79  76  92 S3        30.08S
CORDELE        FAIR      80  74  81 CALM      30.06S
AMERICUS       FAIR      77  68  73 CALM      30.07S
HOMERVILLE     MOCLDY    77  73  88 CALM      30.06F
$$

!GMZ750-755-770-775-260800
...Coastal and Buoy Obs...

STATION/POSITION TIME  TEMP    WIND        PRES    VSBY  WAVE
                       AIR SEA DIR/SP/G                  HT/PER
                 (UTC) (F)     (DEG/KT/KT) (MB)    (MI)  (FT/S)
KEATON BEACH     0700   84     200/ 10/ 12 1016.9F
CEDAR KEY        0600   84     240/  5/  7 1018.4R
C TOWER          0700   84     210/ 20/ 21 1016.4F
APALACHICOLA BUO 0650   84 86  210/ 14/ 17 1016.8F         4/ 6
PANAMA CITY BUOY 0550   83 87  200/ 19/ 23 1015.4          5/ 6
MOBILE BUOY      0600   82 87  180/ 12/ 14 1013.0F
ORANGE BCH AL BU 0650   84 88  160/ 12/ 16 1013.6F         3/ 6
$$




USA.gov is the U.S. government's official web portal to all federal, state and local government web resources and services.